Location: *
(55.6049°S, 142.1985°W)
Time: 04:18:56
(UTC+00:00)

IRIDIUM 104 - Pass Details

Date: 12 May 2021
Orbit: 776 x 779 km, 86.4° (Epoch: 23 June)

Event Time Altitude Azimuth Distance (km) Brightness Sun altitude
Rises 16:28:25 0° 346° (NNW) 3,263 7.7 -6.5°
Reaches altitude 10° 16:30:47 10° 342° (NNW) 2,342 6.9 -6.2°
Maximum altitude 16:35:59 62° 261° (W) 887 4.4 -5.5°
Drops below altitude 10° 16:41:16 10° 179° (S) 2,371 6.6 -4.8°
Sets 16:43:41 0° 176° (S) 3,306 7.4 -4.5°
